User: anonymous   Login
Location: Newark
(48.8604°N, 2.3376°E)
Time: 04:02:21
(UTC+00:00)
Language:

RS-44 - Orbit

View from above orbital plane
View from above orbital plane
View from above satellite
View from above satellite

Ground track
Ground track

The orbit data is extracted from the following two-line orbital elements,

1 44909U 19096E   21339.76869837  .00000016  00000-0  12685-4 0  9996
2 44909  82.5216 358.9806 0218293  52.7892 309.2912 12.79711389 90787
Epoch (UTC): 05 December 2021 18:26:55
Eccentricity: 0.0218293
inclination: 82.5216°
perigee height: 1174 km
apogee height: 1511 km
right ascension of ascending node: 358.9806°
argument of perigee: 52.7892°
revolutions per day: 12.79711389
mean anomaly at epoch: 309.2912°
orbit number at epoch: 9078

The dashed part of the orbit path shows where the satellite is in the earth's shadow,  

DLR